Private Wetterstation Sandau
Wetterdaten: Donnerstag, 12.04.2012
Datum Zeit Temp. A. Feuchte A. Luftdruck Regen Wind Richtung Richtung Taupunkt Windchill
12.04.2012 00:01 7,5 C 83 % 1002,7 hPa 0,0 l/m 1,8 km/h (1 Bft) SO 135 4,8 C 7,5 C
12.04.2012 00:06 7,4 C 83 % 1002,6 hPa 0,0 l/m 0,0 km/h (0 Bft) SO 135 4,7 C 7,4 C
12.04.2012 00:11 7,3 C 83 % 1002,7 hPa 0,0 l/m 2,2 km/h (1 Bft) SO 135 4,6 C 7,3 C
12.04.2012 00:16 7,2 C 83 % 1002,6 hPa 0,0 l/m 0,0 km/h (0 Bft) SO 135 4,5 C 7,2 C
12.04.2012 00:21 7,2 C 84 % 1002,7 hPa 0,0 l/m 0,0 km/h (0 Bft) SO 135 4,7 C 7,2 C
12.04.2012 00:26 7,1 C 84 % 1002,7 hPa 0,0 l/m 0,0 km/h (0 Bft) SO 135 4,6 C 7,1 C
12.04.2012 00:31 7,0 C 84 % 1002,8 hPa 0,0 l/m 2,5 km/h (1 Bft) O-SO 112 4,5 C 7,0 C
12.04.2012 00:36 6,9 C 84 % 1002,7 hPa 0,0 l/m 1,8 km/h (1 Bft) O-SO 112 4,4 C 6,9 C
12.04.2012 00:41 6,8 C 84 % 1002,7 hPa 0,0 l/m 2,2 km/h (1 Bft) O-SO 112 4,3 C 6,8 C
12.04.2012 00:46 6,8 C 85 % 1002,7 hPa 0,0 l/m 0,0 km/h (0 Bft) O-SO 112 4,5 C 6,8 C
12.04.2012 00:51 6,7 C 85 % 1002,8 hPa 0,0 l/m 0,0 km/h (0 Bft) O-SO 112 4,4 C 6,7 C
12.04.2012 00:56 6,7 C 85 % 1002,8 hPa 0,0 l/m 1,1 km/h (1 Bft) O-SO 112 4,4 C 6,7 C
12.04.2012 01:01 6,7 C 85 % 1002,7 hPa 0,0 l/m 0,0 km/h (0 Bft) O-SO 112 4,4 C 6,7 C
12.04.2012 01:06 6,7 C 85 % 1002,7 hPa 0,0 l/m 0,0 km/h (0 Bft) O-SO 112 4,4 C 6,7 C
12.04.2012 01:11 6,7 C 85 % 1002,6 hPa 0,0 l/m 0,0 km/h (0 Bft) O-SO 112 4,4 C 6,7 C
12.04.2012 01:16 6,6 C 85 % 1002,7 hPa 0,0 l/m 0,0 km/h (0 Bft) O-SO 112 4,3 C 6,6 C
12.04.2012 01:21 6,6 C 85 % 1002,6 hPa 0,0 l/m 2,2 km/h (1 Bft) O-SO 112 4,3 C 6,6 C
12.04.2012 01:26 6,5 C 85 % 1002,6 hPa 0,0 l/m 3,2 km/h (1 Bft) SO 135 4,2 C 6,5 C
12.04.2012 01:31 6,4 C 85 % 1002,7 hPa 0,0 l/m 2,5 km/h (1 Bft) SO 135 4,1 C 6,4 C
12.04.2012 01:36 6,4 C 85 % 1002,7 hPa 0,0 l/m 0,0 km/h (0 Bft) SO 135 4,1 C 6,4 C
12.04.2012 01:41 6,4 C 85 % 1002,6 hPa 0,0 l/m 0,0 km/h (0 Bft) SO 135 4,1 C 6,4 C
12.04.2012 01:46 6,4 C 85 % 1002,7 hPa 0,0 l/m 0,0 km/h (0 Bft) SO 135 4,1 C 6,4 C
12.04.2012 01:51 6,4 C 85 % 1002,7 hPa 0,0 l/m 0,0 km/h (0 Bft) SO 135 4,1 C 6,4 C
12.04.2012 01:56 6,4 C 85 % 1002,5 hPa 0,0 l/m 0,0 km/h (0 Bft) SO 135 4,1 C 6,4 C
12.04.2012 02:01 6,4 C 85 % 1002,6 hPa 0,0 l/m 1,1 km/h (1 Bft) SO 135 4,1 C 6,4 C
12.04.2012 02:06 6,4 C 85 % 1002,6 hPa 0,0 l/m 0,0 km/h (0 Bft) SO 135 4,1 C 6,4 C
12.04.2012 02:11 6,4 C 85 % 1002,7 hPa 0,0 l/m 0,0 km/h (0 Bft) SO 135 4,1 C 6,4 C
12.04.2012 02:16 6,3 C 85 % 1002,7 hPa 0,0 l/m 1,1 km/h (1 Bft) SO 135 4,0 C 6,3 C
12.04.2012 02:21 6,3 C 85 % 1002,7 hPa 0,0 l/m 2,2 km/h (1 Bft) SO 135 4,0 C 6,3 C
12.04.2012 02:26 6,3 C 85 % 1002,8 hPa 0,0 l/m 1,4 km/h (1 Bft) SO 135 4,0 C 6,3 C
12.04.2012 02:31 6,3 C 85 % 1002,6 hPa 0,0 l/m 0,0 km/h (0 Bft) SO 135 4,0 C 6,3 C
12.04.2012 02:36 6,3 C 85 % 1002,7 hPa 0,0 l/m 0,0 km/h (0 Bft) SO 135 4,0 C 6,3 C
12.04.2012 02:41 6,3 C 85 % 1002,7 hPa 0,0 l/m 0,0 km/h (0 Bft) SO 135 4,0 C 6,3 C
12.04.2012 02:46 6,3 C 85 % 1002,7 hPa 0,0 l/m 0,0 km/h (0 Bft) SO 135 4,0 C 6,3 C
12.04.2012 02:51 6,3 C 85 % 1002,7 hPa 0,0 l/m 1,4 km/h (1 Bft) SO 135 4,0 C 6,3 C
12.04.2012 02:56 6,3 C 85 % 1002,7 hPa 0,0 l/m 1,8 km/h (1 Bft) SO 135 4,0 C 6,3 C
12.04.2012 03:01 6,3 C 85 % 1002,8 hPa 0,0 l/m 0,0 km/h (0 Bft) SO 135 4,0 C 6,3 C
12.04.2012 03:06 6,3 C 85 % 1002,8 hPa 0,0 l/m 2,5 km/h (1 Bft) O-SO 112 4,0 C 6,3 C
12.04.2012 03:11 6,3 C 85 % 1002,9 hPa 0,0 l/m 0,0 km/h (0 Bft) O-SO 112 4,0 C 6,3 C
12.04.2012 03:16 6,2 C 85 % 1002,8 hPa 0,0 l/m 1,1 km/h (1 Bft) O-SO 112 3,9 C 6,2 C
12.04.2012 03:21 6,1 C 85 % 1002,7 hPa 0,0 l/m 4,0 km/h (1 Bft) O 90 3,8 C 6,1 C
12.04.2012 03:26 5,9 C 85 % 1002,7 hPa 0,0 l/m 2,5 km/h (1 Bft) O 90 3,6 C 5,9 C
12.04.2012 03:31 5,9 C 85 % 1002,7 hPa 0,0 l/m 3,2 km/h (1 Bft) O-SO 112 3,6 C 5,9 C
12.04.2012 03:36 5,9 C 85 % 1002,7 hPa 0,0 l/m 1,8 km/h (1 Bft) O-SO 112 3,6 C 5,9 C
12.04.2012 03:41 5,8 C 85 % 1002,6 hPa 0,0 l/m 0,0 km/h (0 Bft) O-SO 112 3,5 C 5,8 C
12.04.2012 03:46 5,8 C 85 % 1002,6 hPa 0,0 l/m 0,0 km/h (0 Bft) O-SO 112 3,5 C 5,8 C
12.04.2012 03:51 5,8 C 86 % 1002,6 hPa 0,0 l/m 0,0 km/h (0 Bft) O-SO 112 3,6 C 5,8 C
12.04.2012 03:56 5,8 C 86 % 1002,6 hPa 0,0 l/m 0,0 km/h (0 Bft) O-SO 112 3,6 C 5,8 C
12.04.2012 04:01 5,8 C 86 % 1002,6 hPa 0,0 l/m 0,0 km/h (0 Bft) O-SO 112 3,6 C 5,8 C
12.04.2012 04:06 5,8 C 86 % 1002,7 hPa 0,0 l/m 0,0 km/h (0 Bft) O-SO 112 3,6 C 5,8 C
12.04.2012 04:11 5,9 C 86 % 1002,4 hPa 0,0 l/m 0,0 km/h (0 Bft) O-SO 112 3,7 C 5,9 C
12.04.2012 04:16 5,9 C 86 % 1002,4 hPa 0,0 l/m 0,0 km/h (0 Bft) O-SO 112 3,7 C 5,9 C
12.04.2012 04:21 5,9 C 86 % 1002,4 hPa 0,0 l/m 0,0 km/h (0 Bft) O-SO 112 3,7 C 5,9 C
12.04.2012 04:26 5,9 C 86 % 1002,5 hPa 0,0 l/m 1,1 km/h (1 Bft) O-SO 112 3,7 C 5,9 C
12.04.2012 04:31 5,9 C 87 % 1002,4 hPa 0,0 l/m 0,0 km/h (0 Bft) O-SO 112 3,9 C 5,9 C
12.04.2012 04:36 5,8 C 87 % 1002,3 hPa 0,0 l/m 0,0 km/h (0 Bft) O-SO 112 3,8 C 5,8 C
12.04.2012 04:41 5,8 C 87 % 1002,4 hPa 0,0 l/m 0,0 km/h (0 Bft) O-SO 112 3,8 C 5,8 C
12.04.2012 04:46 5,8 C 86 % 1002,5 hPa 0,0 l/m 2,5 km/h (1 Bft) O-SO 112 3,6 C 5,8 C
12.04.2012 04:51 5,8 C 86 % 1002,5 hPa 0,0 l/m 0,0 km/h (0 Bft) O-SO 112 3,6 C 5,8 C
12.04.2012 04:56 5,8 C 86 % 1002,5 hPa 0,0 l/m 0,0 km/h (0 Bft) O-SO 112 3,6 C 5,8 C
12.04.2012 05:01 5,7 C 86 % 1002,4 hPa 0,0 l/m 0,0 km/h (0 Bft) O-SO 112 3,5 C 5,7 C
12.04.2012 05:06 5,7 C 86 % 1002,3 hPa 0,0 l/m 1,4 km/h (1 Bft) O-SO 112 3,5 C 5,7 C
12.04.2012 05:11 5,6 C 87 % 1002,3 hPa 0,0 l/m 0,0 km/h (0 Bft) O-SO 112 3,6 C 5,6 C
12.04.2012 05:16 5,6 C 87 % 1002,4 hPa 0,0 l/m 0,0 km/h (0 Bft) O-SO 112 3,6 C 5,6 C
12.04.2012 05:21 5,6 C 87 % 1002,4 hPa 0,0 l/m 2,2 km/h (1 Bft) O 90 3,6 C 5,6 C
12.04.2012 05:26 5,6 C 87 % 1002,4 hPa 0,0 l/m 1,4 km/h (1 Bft) O-SO 112 3,6 C 5,6 C
12.04.2012 05:31 5,5 C 87 % 1002,3 hPa 0,0 l/m 0,0 km/h (0 Bft) O 90 3,5 C 5,5 C
12.04.2012 05:36 5,6 C 87 % 1002,4 hPa 0,0 l/m 0,0 km/h (0 Bft) O 90 3,6 C 5,6 C
12.04.2012 05:41 5,6 C 87 % 1002,5 hPa 0,0 l/m 0,0 km/h (0 Bft) O 90 3,6 C 5,6 C
12.04.2012 05:46 5,6 C 87 % 1002,4 hPa 0,0 l/m 2,2 km/h (1 Bft) O 90 3,6 C 5,6 C
12.04.2012 05:51 5,6 C 87 % 1002,3 hPa 0,0 l/m 0,0 km/h (0 Bft) O 90 3,6 C 5,6 C
12.04.2012 05:56 5,6 C 87 % 1002,4 hPa 0,0 l/m 2,5 km/h (1 Bft) O-SO 112 3,6 C 5,6 C
12.04.2012 06:01 5,6 C 87 % 1002,4 hPa 0,0 l/m 0,0 km/h (0 Bft) O-SO 112 3,6 C 5,6 C
12.04.2012 06:06 5,6 C 87 % 1002,4 hPa 0,0 l/m 0,0 km/h (0 Bft) O-SO 112 3,6 C 5,6 C
12.04.2012 06:11 5,6 C 87 % 1002,6 hPa 0,0 l/m 0,0 km/h (0 Bft) O-SO 112 3,6 C 5,6 C
12.04.2012 06:16 5,6 C 87 % 1002,5 hPa 0,0 l/m 0,0 km/h (0 Bft) O-SO 112 3,6 C 5,6 C
12.04.2012 06:21 5,6 C 87 % 1002,4 hPa 0,0 l/m 0,0 km/h (0 Bft) O-SO 112 3,6 C 5,6 C
12.04.2012 06:26 5,6 C 87 % 1002,5 hPa 0,0 l/m 0,0 km/h (0 Bft) O-SO 112 3,6 C 5,6 C
12.04.2012 06:31 5,6 C 87 % 1002,5 hPa 0,0 l/m 1,1 km/h (1 Bft) O-SO 112 3,6 C 5,6 C
12.04.2012 06:36 5,6 C 87 % 1002,4 hPa 0,0 l/m 0,0 km/h (0 Bft) O-SO 112 3,6 C 5,6 C
12.04.2012 06:41 5,5 C 87 % 1002,5 hPa 0,0 l/m 0,0 km/h (0 Bft) O-SO 112 3,5 C 5,5 C
12.04.2012 06:46 5,5 C 87 % 1002,6 hPa 0,0 l/m 0,0 km/h (0 Bft) O-SO 112 3,5 C 5,5 C
12.04.2012 06:51 5,6 C 87 % 1002,6 hPa 0,0 l/m 0,0 km/h (0 Bft) O-SO 112 3,6 C 5,6 C
12.04.2012 06:56 5,6 C 88 % 1002,5 hPa 0,0 l/m 0,0 km/h (0 Bft) O-SO 112 3,8 C 5,6 C
12.04.2012 07:01 5,6 C 88 % 1002,7 hPa 0,0 l/m 0,0 km/h (0 Bft) O-SO 112 3,8 C 5,6 C
12.04.2012 07:06 5,7 C 88 % 1002,6 hPa 0,0 l/m 0,0 km/h (0 Bft) O-SO 112 3,9 C 5,7 C
12.04.2012 07:11 5,8 C 88 % 1002,5 hPa 0,0 l/m 1,8 km/h (1 Bft) O-SO 112 4,0 C 5,8 C
12.04.2012 07:16 5,8 C 88 % 1002,5 hPa 0,0 l/m 0,0 km/h (0 Bft) O-SO 112 4,0 C 5,8 C
12.04.2012 07:21 5,8 C 87 % 1002,5 hPa 0,0 l/m 0,0 km/h (0 Bft) O-SO 112 3,8 C 5,8 C
12.04.2012 07:26 5,7 C 87 % 1002,7 hPa 0,0 l/m 0,0 km/h (0 Bft) O-SO 112 3,7 C 5,7 C
12.04.2012 07:31 5,8 C 88 % 1002,6 hPa 0,0 l/m 1,8 km/h (1 Bft) O-SO 112 4,0 C 5,8 C
12.04.2012 07:36 5,7 C 88 % 1002,6 hPa 0,0 l/m 0,0 km/h (0 Bft) O-SO 112 3,9 C 5,7 C
12.04.2012 07:41 5,8 C 88 % 1002,6 hPa 0,0 l/m 0,0 km/h (0 Bft) SO 135 4,0 C 5,8 C
12.04.2012 07:46 5,8 C 88 % 1002,7 hPa 0,0 l/m 1,4 km/h (1 Bft) O-SO 112 4,0 C 5,8 C
12.04.2012 07:51 5,9 C 88 % 1002,6 hPa 0,0 l/m 3,2 km/h (1 Bft) SO 135 4,1 C 5,9 C
12.04.2012 07:56 5,9 C 88 % 1002,7 hPa 0,0 l/m 2,5 km/h (1 Bft) O 90 4,1 C 5,9 C
12.04.2012 08:01 6,0 C 88 % 1002,8 hPa 0,0 l/m 0,0 km/h (0 Bft) O-SO 112 4,2 C 6,0 C
12.04.2012 08:06 6,1 C 88 % 1002,8 hPa 0,0 l/m 0,0 km/h (0 Bft) SO 135 4,3 C 6,1 C
12.04.2012 08:11 6,1 C 88 % 1002,9 hPa 0,0 l/m 2,9 km/h (1 Bft) O 90 4,3 C 6,1 C
12.04.2012 08:16 6,1 C 87 % 1002,8 hPa 0,0 l/m 2,5 km/h (1 Bft) O 90 4,1 C 6,1 C
12.04.2012 08:21 6,2 C 87 % 1002,9 hPa 0,0 l/m 1,8 km/h (1 Bft) O-SO 112 4,2 C 6,2 C
12.04.2012 08:26 6,2 C 87 % 1002,8 hPa 0,0 l/m 0,0 km/h (0 Bft) O-SO 112 4,2 C 6,2 C
12.04.2012 08:31 6,3 C 88 % 1003,0 hPa 0,0 l/m 3,2 km/h (1 Bft) SO 135 4,5 C 6,3 C
12.04.2012 08:36 6,4 C 88 % 1003,0 hPa 0,0 l/m 0,0 km/h (0 Bft) SO 135 4,6 C 6,4 C
12.04.2012 08:41 6,5 C 88 % 1003,1 hPa 0,0 l/m 1,8 km/h (1 Bft) SO 135 4,7 C 6,5 C
12.04.2012 08:46 6,6 C 88 % 1002,9 hPa 0,0 l/m 0,0 km/h (0 Bft) O-SO 112 4,8 C 6,6 C
12.04.2012 08:51 6,8 C 88 % 1003,0 hPa 0,0 l/m 2,9 km/h (1 Bft) O-SO 112 5,0 C 6,8 C
12.04.2012 08:56 6,9 C 88 % 1003,1 hPa 0,0 l/m 2,9 km/h (1 Bft) SO 135 5,1 C 6,9 C
12.04.2012 09:01 7,0 C 88 % 1003,0 hPa 0,0 l/m 1,1 km/h (1 Bft) SO 135 5,2 C 7,0 C
12.04.2012 09:06 7,2 C 88 % 1003,1 hPa 0,0 l/m 3,2 km/h (1 Bft) SO 135 5,3 C 7,2 C
12.04.2012 09:11 7,2 C 88 % 1002,8 hPa 0,0 l/m 2,2 km/h (1 Bft) O-SO 112 5,3 C 7,2 C
12.04.2012 09:16 7,3 C 88 % 1002,9 hPa 0,0 l/m 2,9 km/h (1 Bft) O 90 5,4 C 7,3 C
12.04.2012 09:21 7,4 C 88 % 1003,1 hPa 0,0 l/m 0,0 km/h (0 Bft) SO 135 5,5 C 7,4 C
12.04.2012 09:26 7,6 C 88 % 1003,0 hPa 0,0 l/m 1,8 km/h (1 Bft) O-SO 112 5,7 C 7,6 C
12.04.2012 09:31 7,6 C 87 % 1003,1 hPa 0,0 l/m 0,0 km/h (0 Bft) O-SO 112 5,6 C 7,6 C
12.04.2012 09:36 7,8 C 87 % 1003,2 hPa 0,0 l/m 0,0 km/h (0 Bft) O-SO 112 5,8 C 7,8 C
12.04.2012 09:41 7,9 C 87 % 1003,1 hPa 0,0 l/m 0,0 km/h (0 Bft) O-SO 112 5,9 C 7,9 C
12.04.2012 09:46 8,1 C 87 % 1003,0 hPa 0,0 l/m 0,0 km/h (0 Bft) S 180 6,1 C 8,1 C
12.04.2012 09:51 8,3 C 87 % 1003,2 hPa 0,0 l/m 2,5 km/h (1 Bft) S-SO 157 6,3 C 8,3 C
12.04.2012 09:56 8,4 C 87 % 1003,2 hPa 0,0 l/m 1,8 km/h (1 Bft) S-SO 157 6,4 C 8,4 C
12.04.2012 10:01 8,5 C 86 % 1003,1 hPa 0,0 l/m 1,4 km/h (1 Bft) SO 135 6,3 C 8,5 C
12.04.2012 10:06 8,8 C 87 % 1003,2 hPa 0,0 l/m 2,2 km/h (1 Bft) SO 135 6,8 C 8,8 C
12.04.2012 10:11 8,9 C 86 % 1003,3 hPa 0,0 l/m 1,1 km/h (1 Bft) O-SO 112 6,7 C 8,9 C
12.04.2012 10:16 9,0 C 86 % 1003,0 hPa 0,0 l/m 0,0 km/h (0 Bft) SO 135 6,8 C 9,0 C
12.04.2012 10:21 9,2 C 86 % 1003,1 hPa 0,0 l/m 2,2 km/h (1 Bft) S-SO 157 7,0 C 9,2 C
12.04.2012 10:26 9,3 C 86 % 1003,1 hPa 0,0 l/m 0,0 km/h (0 Bft) S-SW 202 7,1 C 9,3 C
12.04.2012 10:31 9,4 C 85 % 1003,1 hPa 0,0 l/m 2,2 km/h (1 Bft) SO 135 7,0 C 9,4 C
12.04.2012 10:36 9,6 C 85 % 1003,0 hPa 0,0 l/m 0,0 km/h (0 Bft) O-SO 112 7,2 C 9,6 C
12.04.2012 10:41 9,6 C 85 % 1003,1 hPa 0,0 l/m 0,0 km/h (0 Bft) S-SO 157 7,2 C 9,6 C
12.04.2012 10:46 9,8 C 85 % 1003,0 hPa 0,0 l/m 0,0 km/h (0 Bft) O-SO 112 7,4 C 9,8 C
12.04.2012 10:51 9,9 C 84 % 1003,2 hPa 0,0 l/m 3,2 km/h (1 Bft) O 90 7,3 C 9,9 C
12.04.2012 10:56 10,1 C 84 % 1003,3 hPa 0,0 l/m 0,0 km/h (0 Bft) S-SO 157 7,5 C 10,1 C
12.04.2012 11:01 10,2 C 84 % 1003,3 hPa 0,0 l/m 0,0 km/h (0 Bft) SO 135 7,6 C 10,2 C
12.04.2012 11:06 10,4 C 83 % 1003,0 hPa 0,0 l/m 0,0 km/h (0 Bft) O 90 7,6 C 10,4 C
12.04.2012 11:11 10,4 C 83 % 1003,1 hPa 0,0 l/m 3,2 km/h (1 Bft) O 90 7,6 C 10,4 C
12.04.2012 11:16 10,5 C 82 % 1003,0 hPa 0,0 l/m 3,6 km/h (1 Bft) O 90 7,6 C 10,5 C
12.04.2012 11:21 10,6 C 82 % 1003,2 hPa 0,0 l/m 8,3 km/h (2 Bft) O 90 7,7 C 10,6 C
12.04.2012 11:26 10,7 C 82 % 1003,2 hPa 0,0 l/m 0,0 km/h (0 Bft) O-NO 67 7,8 C 10,7 C
12.04.2012 11:31 10,8 C 82 % 1003,3 hPa 0,0 l/m 3,6 km/h (1 Bft) O 90 7,9 C 10,8 C
12.04.2012 11:36 10,9 C 81 % 1003,1 hPa 0,0 l/m 5,0 km/h (1 Bft) O-SO 112 7,8 C 10,9 C
12.04.2012 11:41 11,1 C 81 % 1003,2 hPa 0,0 l/m 2,5 km/h (1 Bft) O-SO 112 8,0 C 11,1 C
12.04.2012 11:46 11,2 C 80 % 1003,2 hPa 0,0 l/m 2,5 km/h (1 Bft) O 90 7,9 C 11,2 C
12.04.2012 11:51 11,3 C 80 % 1003,1 hPa 0,0 l/m 0,0 km/h (0 Bft) SO 135 8,0 C 11,3 C
12.04.2012 11:56 11,4 C 80 % 1003,1 hPa 0,0 l/m 6,5 km/h (2 Bft) O-SO 112 8,1 C 11,4 C
12.04.2012 12:01 11,5 C 80 % 1003,1 hPa 0,0 l/m 4,0 km/h (1 Bft) O 90 8,2 C 11,5 C
12.04.2012 12:06 11,6 C 79 % 1003,1 hPa 0,0 l/m 4,0 km/h (1 Bft) O 90 8,1 C 11,6 C
12.04.2012 12:11 11,8 C 78 % 1002,9 hPa 0,0 l/m 10,4 km/h (2 Bft) O-SO 112 8,1 C 11,8 C
12.04.2012 12:16 11,8 C 77 % 1002,8 hPa 0,0 l/m 6,8 km/h (2 Bft) O-SO 112 7,9 C 11,8 C
12.04.2012 12:21 11,9 C 76 % 1002,8 hPa 0,0 l/m 4,0 km/h (1 Bft) O 90 7,8 C 11,9 C
12.04.2012 12:26 12,0 C 76 % 1002,8 hPa 0,0 l/m 2,5 km/h (1 Bft) O-SO 112 7,9 C 12,0 C
12.04.2012 12:31 12,2 C 77 % 1002,8 hPa 0,0 l/m 2,5 km/h (1 Bft) SO 135 8,3 C 12,2 C
12.04.2012 12:36 12,4 C 76 % 1002,8 hPa 0,0 l/m 4,0 km/h (1 Bft) S-SO 157 8,3 C 12,4 C
12.04.2012 12:41 12,7 C 74 % 1002,7 hPa 0,0 l/m 4,3 km/h (1 Bft) O-SO 112 8,2 C 12,7 C
12.04.2012 12:46 12,8 C 74 % 1002,7 hPa 0,0 l/m 2,5 km/h (1 Bft) S-SO 157 8,3 C 12,8 C
12.04.2012 12:51 12,9 C 72 % 1002,7 hPa 0,0 l/m 6,8 km/h (2 Bft) O 90 8,0 C 12,9 C
12.04.2012 12:56 12,9 C 72 % 1002,7 hPa 0,0 l/m 2,2 km/h (1 Bft) O 90 8,0 C 12,9 C
12.04.2012 13:01 13,0 C 72 % 1002,7 hPa 0,0 l/m 2,5 km/h (1 Bft) O 90 8,1 C 13,0 C
12.04.2012 13:06 13,1 C 71 % 1002,4 hPa 0,0 l/m 4,0 km/h (1 Bft) SO 135 8,0 C 13,1 C
12.04.2012 13:11 13,3 C 71 % 1002,6 hPa 0,0 l/m 5,0 km/h (1 Bft) S-SO 157 8,2 C 13,3 C
12.04.2012 13:16 13,4 C 70 % 1002,6 hPa 0,0 l/m 9,0 km/h (2 Bft) O-SO 112 8,0 C 13,4 C
12.04.2012 13:21 13,5 C 69 % 1002,4 hPa 0,0 l/m 8,3 km/h (2 Bft) O-SO 112 7,9 C 13,5 C
12.04.2012 13:26 13,7 C 69 % 1002,5 hPa 0,0 l/m 6,1 km/h (2 Bft) S-SO 157 8,1 C 13,7 C
12.04.2012 13:31 13,8 C 67 % 1002,3 hPa 0,0 l/m 5,0 km/h (1 Bft) S-SO 157 7,8 C 13,8 C
12.04.2012 13:36 13,9 C 66 % 1002,3 hPa 0,0 l/m 0,0 km/h (0 Bft) O-NO 67 7,7 C 13,9 C
12.04.2012 13:41 13,9 C 65 % 1002,4 hPa 0,0 l/m 3,6 km/h (1 Bft) SO 135 7,4 C 13,9 C
12.04.2012 13:46 14,1 C 65 % 1002,4 hPa 0,0 l/m 5,0 km/h (1 Bft) O-SO 112 7,6 C 14,1 C
12.04.2012 13:51 14,1 C 64 % 1002,3 hPa 0,0 l/m 6,5 km/h (2 Bft) SO 135 7,4 C 14,1 C
12.04.2012 13:56 14,1 C 63 % 1002,5 hPa 0,0 l/m 0,0 km/h (0 Bft) S-SO 157 7,2 C 14,1 C
12.04.2012 14:01 14,2 C 63 % 1002,2 hPa 0,0 l/m 2,2 km/h (1 Bft) S-SO 157 7,3 C 14,2 C
12.04.2012 14:06 14,3 C 63 % 1002,3 hPa 0,0 l/m 6,8 km/h (2 Bft) O-SO 112 7,4 C 14,3 C
12.04.2012 14:11 14,2 C 61 % 1002,3 hPa 0,0 l/m 2,9 km/h (1 Bft) O-SO 112 6,8 C 14,2 C
12.04.2012 14:16 14,2 C 61 % 1002,2 hPa 0,0 l/m 3,2 km/h (1 Bft) S-SO 157 6,8 C 14,2 C
12.04.2012 14:21 14,2 C 61 % 1002,3 hPa 0,0 l/m 4,0 km/h (1 Bft) SO 135 6,8 C 14,2 C
12.04.2012 14:26 14,3 C 61 % 1002,2 hPa 0,0 l/m 2,2 km/h (1 Bft) SO 135 6,9 C 14,3 C
12.04.2012 14:31 14,3 C 59 % 1002,4 hPa 0,0 l/m 1,4 km/h (1 Bft) SO 135 6,4 C 14,3 C
12.04.2012 14:36 14,3 C 59 % 1002,4 hPa 0,0 l/m 6,1 km/h (2 Bft) O-NO 67 6,4 C 14,3 C
12.04.2012 14:41 14,2 C 59 % 1002,3 hPa 0,0 l/m 4,0 km/h (1 Bft) O-SO 112 6,3 C 14,2 C
12.04.2012 14:46 14,2 C 60 % 1002,3 hPa 0,0 l/m 7,2 km/h (2 Bft) O-SO 112 6,5 C 14,2 C
12.04.2012 14:51 14,1 C 59 % 1002,1 hPa 0,0 l/m 8,3 km/h (2 Bft) O-SO 112 6,2 C 14,1 C
12.04.2012 14:56 14,1 C 59 % 1002,2 hPa 0,0 l/m 9,0 km/h (2 Bft) S-SO 157 6,2 C 14,1 C
12.04.2012 15:01 14,0 C 58 % 1002,2 hPa 0,0 l/m 3,2 km/h (1 Bft) O 90 5,9 C 14,0 C
12.04.2012 15:06 13,9 C 58 % 1002,1 hPa 0,0 l/m 6,8 km/h (2 Bft) O-SO 112 5,8 C 13,9 C
12.04.2012 15:11 13,9 C 58 % 1002,1 hPa 0,0 l/m 5,8 km/h (2 Bft) SO 135 5,8 C 13,9 C
12.04.2012 15:16 13,9 C 57 % 1002,1 hPa 0,0 l/m 6,5 km/h (2 Bft) O-SO 112 5,5 C 13,9 C
12.04.2012 15:21 13,9 C 57 % 1002,1 hPa 0,0 l/m 5,8 km/h (2 Bft) O-SO 112 5,5 C 13,9 C
12.04.2012 15:26 13,8 C 57 % 1001,9 hPa 0,0 l/m 4,0 km/h (1 Bft) O-NO 67 5,4 C 13,8 C
12.04.2012 15:31 13,9 C 57 % 1001,9 hPa 0,0 l/m 8,3 km/h (2 Bft) SO 135 5,5 C 13,9 C
12.04.2012 15:36 13,9 C 57 % 1002,0 hPa 0,0 l/m 2,9 km/h (1 Bft) O-SO 112 5,5 C 13,9 C
12.04.2012 15:41 14,1 C 57 % 1001,9 hPa 0,0 l/m 7,6 km/h (2 Bft) SO 135 5,7 C 14,1 C
12.04.2012 15:46 14,1 C 58 % 1001,9 hPa 0,0 l/m 4,0 km/h (1 Bft) SO 135 6,0 C 14,1 C
12.04.2012 15:51 14,1 C 58 % 1002,0 hPa 0,0 l/m 5,8 km/h (2 Bft) O-NO 67 6,0 C 14,1 C
12.04.2012 15:56 14,1 C 58 % 1002,1 hPa 0,0 l/m 3,6 km/h (1 Bft) O-SO 112 6,0 C 14,1 C
12.04.2012 16:01 13,9 C 58 % 1001,9 hPa 0,0 l/m 5,4 km/h (1 Bft) O-NO 67 5,8 C 13,9 C
12.04.2012 16:06 13,9 C 58 % 1001,9 hPa 0,0 l/m 14,4 km/h (3 Bft) O 90 5,8 C 13,9 C
12.04.2012 16:11 13,8 C 58 % 1002,0 hPa 0,0 l/m 4,7 km/h (1 Bft) O 90 5,7 C 13,8 C
12.04.2012 16:16 13,8 C 59 % 1002,0 hPa 0,0 l/m 4,7 km/h (1 Bft) O 90 5,9 C 13,8 C
12.04.2012 16:21 13,8 C 59 % 1001,9 hPa 0,0 l/m 7,6 km/h (2 Bft) O-SO 112 5,9 C 13,8 C
12.04.2012 16:26 13,9 C 59 % 1002,1 hPa 0,0 l/m 7,6 km/h (2 Bft) O-SO 112 6,0 C 13,9 C
12.04.2012 16:31 13,9 C 59 % 1001,9 hPa 0,0 l/m 4,3 km/h (1 Bft) SO 135 6,0 C 13,9 C
12.04.2012 16:36 13,9 C 59 % 1001,9 hPa 0,0 l/m 5,4 km/h (1 Bft) O-SO 112 6,0 C 13,9 C
12.04.2012 16:41 14,1 C 59 % 1001,9 hPa 0,0 l/m 12,2 km/h (2 Bft) O-SO 112 6,2 C 14,1 C
12.04.2012 16:46 14,2 C 58 % 1002,1 hPa 0,0 l/m 11,2 km/h (2 Bft) SO 135 6,1 C 14,2 C
12.04.2012 16:51 14,1 C 57 % 1002,1 hPa 0,0 l/m 5,0 km/h (1 Bft) O 90 5,7 C 14,1 C
12.04.2012 16:56 13,9 C 58 % 1002,0 hPa 0,0 l/m 7,9 km/h (2 Bft) SO 135 5,8 C 13,9 C
12.04.2012 17:01 14,0 C 58 % 1002,1 hPa 0,0 l/m 14,4 km/h (3 Bft) SO 135 5,9 C 14,0 C
12.04.2012 17:06 14,0 C 58 % 1002,0 hPa 0,0 l/m 9,4 km/h (2 Bft) O-SO 112 5,9 C 14,0 C
12.04.2012 17:11 13,9 C 58 % 1001,9 hPa 0,0 l/m 4,0 km/h (1 Bft) O-SO 112 5,8 C 13,9 C
12.04.2012 17:16 13,9 C 58 % 1002,0 hPa 0,0 l/m 10,8 km/h (2 Bft) SO 135 5,8 C 13,9 C
12.04.2012 17:21 14,1 C 58 % 1002,0 hPa 0,0 l/m 9,7 km/h (2 Bft) O-NO 67 6,0 C 14,1 C
12.04.2012 17:26 13,9 C 56 % 1002,1 hPa 0,0 l/m 11,2 km/h (2 Bft) SO 135 5,3 C 13,9 C
12.04.2012 17:31 13,6 C 57 % 1001,9 hPa 0,0 l/m 4,7 km/h (1 Bft) SO 135 5,2 C 13,6 C
12.04.2012 17:36 13,4 C 58 % 1002,0 hPa 0,0 l/m 10,1 km/h (2 Bft) O-SO 112 5,3 C 13,4 C
12.04.2012 17:41 13,2 C 58 % 1001,8 hPa 0,0 l/m 2,2 km/h (1 Bft) SO 135 5,1 C 13,2 C
12.04.2012 17:46 13,0 C 59 % 1002,0 hPa 0,0 l/m 9,0 km/h (2 Bft) O-SO 112 5,2 C 13,0 C
12.04.2012 17:51 12,9 C 60 % 1002,0 hPa 0,0 l/m 5,0 km/h (1 Bft) SO 135 5,3 C 12,9 C
12.04.2012 17:56 12,7 C 60 % 1001,9 hPa 0,0 l/m 2,9 km/h (1 Bft) SO 135 5,1 C 12,7 C
12.04.2012 18:01 12,5 C 61 % 1001,7 hPa 0,0 l/m 5,0 km/h (1 Bft) SO 135 5,2 C 12,5 C
12.04.2012 18:06 12,4 C 62 % 1002,2 hPa 0,0 l/m 14,0 km/h (3 Bft) SW 225 5,3 C 12,4 C
12.04.2012 18:11 12,4 C 62 % 1002,3 hPa 0,0 l/m 10,4 km/h (2 Bft) W 270 5,3 C 12,4 C
12.04.2012 18:16 12,1 C 63 % 1002,4 hPa 0,0 l/m 16,6 km/h (3 Bft) W-SW 247 5,3 C 12,1 C
12.04.2012 18:21 11,8 C 64 % 1002,4 hPa 0,0 l/m 11,9 km/h (2 Bft) W-SW 247 5,2 C 11,8 C
12.04.2012 18:26 11,4 C 66 % 1002,4 hPa 0,0 l/m 11,5 km/h (2 Bft) S-SW 202 5,3 C 11,4 C
12.04.2012 18:31 11,1 C 66 % 1002,5 hPa 0,0 l/m 13,3 km/h (3 Bft) S-SW 202 5,0 C 11,1 C
12.04.2012 18:36 10,8 C 67 % 1002,6 hPa 0,0 l/m 18,7 km/h (3 Bft) W-SW 247 4,9 C 10,8 C
12.04.2012 18:41 10,6 C 69 % 1002,5 hPa 0,0 l/m 13,7 km/h (3 Bft) S-SW 202 5,2 C 10,6 C
12.04.2012 18:46 10,4 C 69 % 1002,6 hPa 0,0 l/m 8,3 km/h (2 Bft) SW 225 5,0 C 10,4 C
12.04.2012 18:51 10,4 C 70 % 1002,7 hPa 0,0 l/m 10,4 km/h (2 Bft) W-SW 247 5,2 C 10,4 C
12.04.2012 18:56 10,2 C 71 % 1002,9 hPa 0,0 l/m 7,2 km/h (2 Bft) S-SW 202 5,2 C 10,2 C
12.04.2012 19:01 10,2 C 72 % 1002,8 hPa 0,0 l/m 13,3 km/h (3 Bft) S-SW 202 5,4 C 10,2 C
12.04.2012 19:06 10,1 C 73 % 1002,6 hPa 0,0 l/m 6,1 km/h (2 Bft) SW 225 5,5 C 10,1 C
12.04.2012 19:11 10,0 C 74 % 1002,7 hPa 0,5 l/m 5,8 km/h (2 Bft) W-SW 247 5,6 C 9,5 C
12.04.2012 19:16 9,9 C 74 % 1002,7 hPa 0,0 l/m 7,2 km/h (2 Bft) W-SW 247 5,5 C 9,1 C
12.04.2012 19:21 9,9 C 74 % 1002,6 hPa 0,0 l/m 2,2 km/h (1 Bft) S-SW 202 5,5 C 9,9 C
12.04.2012 19:26 9,8 C 74 % 1002,6 hPa 0,0 l/m 0,0 km/h (0 Bft) S-SO 157 5,4 C 9,8 C
12.04.2012 19:31 9,8 C 74 % 1002,6 hPa 0,0 l/m 2,2 km/h (1 Bft) S 180 5,4 C 9,8 C
12.04.2012 19:36 9,8 C 75 % 1002,6 hPa 0,0 l/m 3,6 km/h (1 Bft) SW 225 5,6 C 9,8 C
12.04.2012 19:41 9,8 C 75 % 1002,6 hPa 0,0 l/m 0,0 km/h (0 Bft) SO 135 5,6 C 9,8 C
12.04.2012 19:46 9,8 C 76 % 1002,5 hPa 0,0 l/m 4,0 km/h (1 Bft) S-SW 202 5,8 C 9,8 C
12.04.2012 19:51 9,8 C 76 % 1002,6 hPa 0,0 l/m 1,8 km/h (1 Bft) S 180 5,8 C 9,8 C
12.04.2012 19:56 9,8 C 76 % 1002,6 hPa 0,0 l/m 6,1 km/h (2 Bft) SO 135 5,8 C 9,2 C
12.04.2012 20:01 9,6 C 76 % 1002,7 hPa 0,0 l/m 0,0 km/h (0 Bft) S-SO 157 5,6 C 9,6 C
12.04.2012 20:06 9,5 C 77 % 1002,8 hPa 0,0 l/m 5,0 km/h (1 Bft) S 180 5,7 C 9,2 C
12.04.2012 20:11 9,5 C 77 % 1002,7 hPa 0,0 l/m 4,3 km/h (1 Bft) SO 135 5,7 C 9,5 C
12.04.2012 20:16 9,5 C 77 % 1002,7 hPa 0,0 l/m 2,9 km/h (1 Bft) S-SO 157 5,7 C 9,5 C
12.04.2012 20:21 9,4 C 78 % 1002,7 hPa 0,0 l/m 3,6 km/h (1 Bft) S-SO 157 5,8 C 9,4 C
12.04.2012 20:26 9,4 C 78 % 1002,7 hPa 0,0 l/m 1,8 km/h (1 Bft) S 180 5,8 C 9,4 C
12.04.2012 20:31 9,4 C 78 % 1002,9 hPa 0,0 l/m 5,8 km/h (2 Bft) S 180 5,8 C 8,8 C
12.04.2012 20:36 9,4 C 78 % 1002,6 hPa 0,0 l/m 2,5 km/h (1 Bft) S-SW 202 5,8 C 9,4 C
12.04.2012 20:41 9,3 C 78 % 1002,7 hPa 0,0 l/m 5,0 km/h (1 Bft) S 180 5,7 C 9,0 C
12.04.2012 20:46 9,3 C 78 % 1002,9 hPa 0,0 l/m 3,2 km/h (1 Bft) S-SW 202 5,7 C 9,3 C
12.04.2012 20:51 9,3 C 78 % 1002,8 hPa 0,0 l/m 0,0 km/h (0 Bft) S-SO 157 5,7 C 9,3 C
12.04.2012 20:56 9,3 C 78 % 1003,0 hPa 0,0 l/m 0,0 km/h (0 Bft) S-SO 157 5,7 C 9,3 C
12.04.2012 21:01 9,2 C 79 % 1002,8 hPa 0,0 l/m 4,3 km/h (1 Bft) SO 135 5,8 C 9,2 C
12.04.2012 21:06 9,1 C 79 % 1002,9 hPa 0,0 l/m 2,5 km/h (1 Bft) S-SO 157 5,7 C 9,1 C
12.04.2012 21:11 9,1 C 79 % 1002,7 hPa 0,0 l/m 0,0 km/h (0 Bft) O-SO 112 5,7 C 9,1 C
12.04.2012 21:16 8,9 C 79 % 1003,0 hPa 0,0 l/m 0,0 km/h (0 Bft) O-SO 112 5,5 C 8,9 C
12.04.2012 21:21 8,9 C 79 % 1003,0 hPa 0,0 l/m 0,0 km/h (0 Bft) O 90 5,5 C 8,9 C
12.04.2012 21:26 8,9 C 79 % 1003,1 hPa 0,0 l/m 0,0 km/h (0 Bft) O 90 5,5 C 8,9 C
12.04.2012 21:31 8,8 C 79 % 1003,2 hPa 0,0 l/m 2,9 km/h (1 Bft) SO 135 5,4 C 8,8 C
12.04.2012 21:36 8,8 C 80 % 1003,0 hPa 0,0 l/m 4,3 km/h (1 Bft) O 90 5,5 C 8,8 C
12.04.2012 21:41 8,6 C 80 % 1003,0 hPa 0,0 l/m 1,8 km/h (1 Bft) O-SO 112 5,3 C 8,6 C
12.04.2012 21:46 8,6 C 80 % 1002,9 hPa 0,0 l/m 4,7 km/h (1 Bft) O-SO 112 5,3 C 8,3 C
12.04.2012 21:51 8,5 C 80 % 1003,0 hPa 0,0 l/m 1,8 km/h (1 Bft) O 90 5,3 C 8,5 C
12.04.2012 21:56 8,5 C 80 % 1003,0 hPa 0,0 l/m 4,0 km/h (1 Bft) O-SO 112 5,3 C 8,5 C
12.04.2012 22:01 8,5 C 80 % 1003,0 hPa 0,0 l/m 2,5 km/h (1 Bft) SO 135 5,3 C 8,5 C
12.04.2012 22:06 8,5 C 80 % 1003,0 hPa 0,0 l/m 0,0 km/h (0 Bft) O 90 5,3 C 8,5 C
12.04.2012 22:11 8,5 C 81 % 1003,0 hPa 0,0 l/m 4,7 km/h (1 Bft) O-SO 112 5,4 C 8,2 C
12.04.2012 22:16 8,4 C 81 % 1003,0 hPa 0,0 l/m 2,5 km/h (1 Bft) SO 135 5,3 C 8,4 C
12.04.2012 22:21 8,4 C 81 % 1003,1 hPa 0,0 l/m 0,0 km/h (0 Bft) O-SO 112 5,3 C 8,4 C
12.04.2012 22:26 8,4 C 81 % 1003,0 hPa 0,0 l/m 0,0 km/h (0 Bft) O-SO 112 5,3 C 8,4 C
12.04.2012 22:31 8,4 C 82 % 1002,8 hPa 0,0 l/m 0,0 km/h (0 Bft) SO 135 5,5 C 8,4 C
12.04.2012 22:36 8,4 C 82 % 1002,9 hPa 0,0 l/m 2,2 km/h (1 Bft) O 90 5,5 C 8,4 C
12.04.2012 22:41 8,4 C 82 % 1002,9 hPa 0,0 l/m 0,0 km/h (0 Bft) O 90 5,5 C 8,4 C
12.04.2012 22:46 8,4 C 82 % 1003,1 hPa 0,0 l/m 0,0 km/h (0 Bft) O-NO 67 5,5 C 8,4 C
12.04.2012 22:51 8,4 C 82 % 1002,9 hPa 0,0 l/m 0,0 km/h (0 Bft) O-SO 112 5,5 C 8,4 C
12.04.2012 22:56 8,4 C 82 % 1003,0 hPa 0,0 l/m 0,0 km/h (0 Bft) O 90 5,5 C 8,4 C
12.04.2012 23:01 8,4 C 82 % 1002,7 hPa 0,0 l/m 2,2 km/h (1 Bft) O-SO 112 5,5 C 8,4 C
12.04.2012 23:06 8,3 C 83 % 1002,8 hPa 0,0 l/m 1,4 km/h (1 Bft) O-SO 112 5,6 C 8,3 C
12.04.2012 23:11 8,3 C 83 % 1002,7 hPa 0,0 l/m 6,1 km/h (2 Bft) S-SO 157 5,6 C 7,5 C
12.04.2012 23:16 8,3 C 83 % 1002,5 hPa 0,0 l/m 0,0 km/h (0 Bft) O-SO 112 5,6 C 8,3 C
12.04.2012 23:21 8,3 C 83 % 1002,7 hPa 0,0 l/m 2,5 km/h (1 Bft) O 90 5,6 C 8,3 C
12.04.2012 23:26 8,3 C 83 % 1002,6 hPa 0,0 l/m 3,6 km/h (1 Bft) O 90 5,6 C 8,3 C
12.04.2012 23:31 8,2 C 83 % 1002,7 hPa 0,0 l/m 1,4 km/h (1 Bft) O-SO 112 5,5 C 8,2 C
12.04.2012 23:36 8,2 C 83 % 1002,6 hPa 0,0 l/m 3,2 km/h (1 Bft) O-SO 112 5,5 C 8,2 C
12.04.2012 23:41 8,1 C 83 % 1002,7 hPa 0,0 l/m 0,0 km/h (0 Bft) O-SO 112 5,4 C 8,1 C
12.04.2012 23:46 8,1 C 84 % 1002,7 hPa 0,0 l/m 0,0 km/h (0 Bft) SO 135 5,6 C 8,1 C
12.04.2012 23:51 8,1 C 84 % 1002,8 hPa 0,0 l/m 3,2 km/h (1 Bft) O 90 5,6 C 8,1 C
12.04.2012 23:56 8,1 C 84 % 1002,7 hPa 0,0 l/m 0,0 km/h (0 Bft) O 90 5,6 C 8,1 C
_ Min-Zeit 05:31 17:26 18:01 - 00:06 - - 03:41 05:31
Minimum _ 5,5 C 56 % 1001,7 hPa - 0,0 km/h (0 Bft) - - 3,5 C 5,5 C
_ Max-Zeit 14:06 06:56 10:11 19:11 18:36 - - 12:36 14:06
Maximum _ 14,3 C 88 % 1003,3 hPa 0,5 l/m 18,7 km/h
W-SW (3 Bft)
- - 8,3 C 14,3 C
Durchschnitt _ 9,2 C 78 % 1002,6 hPa #0,5 l/m 3,0 km/h (1 Bft) O-SO - 5,4 C 9,2 C
(c) by David Heller